Weather History for Poplar Bluff, MO

Change the Weather History Date:

Saturday, January 26, 2013

  Actual Average Record
Temperature  
Mean Temperature 39 °F -  
Max Temperature 48 °F 44 °F 74 °F (1952)
Min Temperature 30 °F 24 °F -3 °F (1940)
Degree Days  
Heating Degree Days 26    
Moisture  
Dew Point 28 °F    
Average Humidity 69    
Maximum Humidity 88    
Minimum Humidity 46    
Precipitation  
Precipitation 0.00 in - - ()
Sea Level Pressure  
Sea Level Pressure 30.32 in    
Wind  
Wind Speed 3 mph (ENE)    
Max Wind Speed 10 mph    
Max Gust Speed -    
Visibility 9 miles    
Events      
Averages and records for this station are not official NWS values.
T = Trace of Precipitation, MM = Missing Value Source: NWS Daily Summary

Daily Weather History Graph

Daily Weather History Graph

Search for Another Location

Airport:

Trip Planner

Search our weather history database for the weather conditions in past years. The results will help you decide how hot, cold, wet, or windy it might be!

Date:

Astronomy

Jan. 26, 2013 Rise Set
Actual Time 7:07 AM CST 5:20 PM CST
Civil Twilight 6:40 AM CST 5:48 PM CST
Nautical Twilight 6:08 AM CST 6:19 PM CST
Astronomical Twilight 5:38 AM CST 6:50 PM CST
Moon 5:14 PM CST (1/26) 6:26 AM CST (1/26)
Length of Visible Light 11h 08m
Length of Day
10h 13m
Full, 100% of the Moon is Illuminated
Jan 26
Full
Jan 26
Full
Feb 3
Last Quarter
Feb 10
New
Feb 17
First Quarter

Hourly Weather History & Observations

Time (CST) Temp. Windchill Dew Point Humidity Pressure Visibility Wind Dir Wind Speed Gust Speed Precip Events Conditions
12:53 AM 30.9 °F 27.5 °F 27.0 °F 85% 30.26 in 8.0 mi NW 3.5 mph - N/A   Clear
1:53 AM 30.0 °F - 25.0 °F 82% 30.28 in 10.0 mi Calm Calm - N/A   Clear
2:53 AM 30.0 °F - 27.0 °F 88% 30.28 in 6.0 mi Calm Calm - N/A   Clear
3:53 AM 30.0 °F - 26.1 °F 85% 30.29 in 5.0 mi Calm Calm - N/A   Clear
4:53 AM 30.9 °F - 27.0 °F 85% 30.29 in 7.0 mi Calm Calm - N/A   Clear
5:53 AM 30.0 °F - 27.0 °F 88% 30.31 in 9.0 mi Calm Calm - N/A   Clear
6:53 AM 30.9 °F - 27.0 °F 85% 30.33 in 8.0 mi Calm Calm - N/A   Clear
7:53 AM 32.0 °F - 28.0 °F 85% 30.34 in 8.0 mi Calm Calm - N/A   Clear
8:53 AM 35.1 °F - 28.0 °F 76% 30.36 in 9.0 mi Calm Calm - N/A   Clear
9:53 AM 39.0 °F 34.0 °F 28.0 °F 65% 30.38 in 10.0 mi ENE 6.9 mph - N/A   Clear
10:53 AM 41.0 °F 34.7 °F 27.0 °F 57% 30.38 in 10.0 mi NE 10.4 mph - N/A   Clear
11:53 AM 43.0 °F 38.8 °F 26.1 °F 51% 30.37 in 10.0 mi NE 6.9 mph - N/A   Clear
12:53 PM 46.0 °F 42.5 °F 28.0 °F 50% 30.34 in 10.0 mi ENE 6.9 mph - N/A   Clear
1:53 PM 48.0 °F - 28.9 °F 48% 30.31 in 10.0 mi ENE 3.5 mph - N/A   Clear
2:53 PM 48.9 °F - 28.9 °F 46% 30.30 in 10.0 mi East 5.8 mph - N/A   Clear
3:53 PM 48.9 °F - 28.9 °F 46% 30.30 in 10.0 mi ENE 8.1 mph - N/A   Clear
4:53 PM 46.0 °F 44.8 °F 28.9 °F 51% 30.30 in 10.0 mi ESE 3.5 mph - N/A   Clear
5:53 PM 42.1 °F 39.2 °F 30.0 °F 62% 30.32 in 10.0 mi East 4.6 mph - N/A   Clear
6:53 PM 39.9 °F - 28.9 °F 65% 30.33 in 10.0 mi Calm Calm - N/A   Clear
7:53 PM 36.0 °F 33.3 °F 28.9 °F 76% 30.32 in 10.0 mi ENE 3.5 mph - N/A   Clear
8:53 PM 35.1 °F 31.0 °F 28.0 °F 76% 30.31 in 10.0 mi NE 4.6 mph - N/A   Overcast
9:53 PM 37.0 °F 32.4 °F 28.0 °F 70% 30.32 in 10.0 mi NE 5.8 mph - N/A   Overcast
10:53 PM 36.0 °F 31.1 °F 27.0 °F 70% 30.32 in 10.0 mi NE 5.8 mph - N/A   Overcast
11:53 PM 37.0 °F 31.6 °F 25.0 °F 62% 30.31 in 10.0 mi ENE 6.9 mph - N/A   Overcast